Miscellaneous Local Product
Issued by NWS Hastings, NE

Home | Current Version | Previous Version | Graphics & Text | Print | Product List | Glossary On
Versions: 1 2 3 4 5 6 7 8 9 10 11 12 13 14 15 16 17 18 19 20 21 22 23 24 25 26 27 28 29 30 31 32 33 34 35 36 37 38 39 40 41 42 43 44 45 46 47 48 49 50
000
AXUS43 KGID 241902
MISGRI

GID CWA HOURLY WEATHER ROUNDUP
NATIONAL WEATHER SERVICE HASTINGS NE
200 PM CDT THU APR 24 2014

NOTE: "FAIR" INDICATES FEW OR NO CLOUDS BELOW 12,000 FEET WITH NO
SIGNIFICANT WEATHER AND/OR OBSTRUCTIONS TO VISIBILITY.

...SOUTH CENTRAL NEBRASKA...

CITY           SKY/WX    TMP DP  RH WIND       PRES   REMARKS
GRAND ISLAND   MOSUNNY   67  30  25 N24G30    29.80F
HASTINGS       PTSUNNY   65  29  25 N23G30    29.82F
KEARNEY        SUNNY     66  27  22 N18G29    29.83F
ORD            SUNNY     68  21  16 N17G31    29.79S
YORK           CLOUDY    63  39  42 NW14G24   29.80S
AURORA         PTSUNNY   65  36  33 N17G26    29.80F
LEXINGTON      SUNNY     68  20  16 N21G29    29.84F
HOLDREGE       SUNNY     65  24  20 NW14G25   29.84F
HEBRON         CLOUDY    60  41  50 N12G20    29.80F

...NEBRASKA PANHANDLE...

CITY           SKY/WX    TMP DP  RH WIND       PRES   REMARKS
CHADRON        SUNNY     65  22  19 NW17G26   29.85F
ALLIANCE       SUNNY     61  16  17 W17G28    29.87F
SCOTTSBLUFF    MOSUNNY   63  17  17 W15G23    29.89F
SIDNEY         SUNNY     63  13  14 NW20G28   29.92F

...WESTERN AND NORTH CENTRAL NEBRASKA...

CITY           SKY/WX    TMP DP  RH WIND       PRES   REMARKS
VALENTINE      SUNNY     66  20  17 NW18G25   29.81F
AINSWORTH      SUNNY     65  18  16 NW20G32   29.81F
ONEILL         SUNNY     68  12  11 NW24G33   29.79S
BROKEN BOW     SUNNY     68  16  13 NW22G36   29.82F
IMPERIAL       SUNNY     65  10  11 NW17G24   29.90F
NORTH PLATTE   SUNNY     66  23  19 W22G29    29.86F
MCCOOK         SUNNY     68  16  13 NW16G26   29.88F

...EASTERN NEBRASKA...

CITY           SKY/WX    TMP DP  RH WIND       PRES   REMARKS
NORFOLK        MOSUNNY   65  38  36 N18G25    29.74F
SO SIOUX CITY  CLOUDY    62  45  53 N20       29.73R
TEKAMAH        CLOUDY    61  49  64 NW10      29.75R
COLUMBUS       MOSUNNY   64  43  45 N14       29.79S
ALBION         SUNNY     65  24  20 N18G30    29.77F
OMAHA EPPLEY   CLOUDY    57  48  72 NW17      29.73S
OFFUTT AFB     CLOUDY    59  50  73 N17G24    29.73S
MILLARD        CLOUDY    57  46  68 NW12G18   29.74S
LINCOLN        CLOUDY    63  42  46 N21       29.76F
NEBRASKA CITY  CLOUDY    56  50  81 N17       29.74F
BEATRICE       CLOUDY    62  44  52 N25       29.75F
FALLS CITY     CLOUDY    57  51  80 N18G25    29.69F

...NORTHERN KANSAS...

CITY           SKY/WX    TMP DP  RH WIND       PRES   REMARKS
GOODLAND       SUNNY     63  13  14 NW15G29   29.94F
HILL CITY      MOSUNNY   67  30  25 NW18G24   29.89F
PHILLIPSBURG   SUNNY     66  30  26 NW18G26   29.86F
SMITH CENTER   SUNNY     64  34  32 NW23      29.85F
BELOIT         SUNNY     64  37  36 NW17G28   29.82F
HAYS           MOSUNNY   66  36  32 N20G28    29.88F
RUSSELL        PTSUNNY   67  35  30 N22G33    29.85F
CONCORDIA      CLOUDY    62  42  47 N18G28    29.80S
SALINA         CLOUDY    61  41  47 NW22G33   29.81S
TOPEKA         CLOUDY    57  52  83 NW12      29.70R



USA.gov is the U.S. government's official web portal to all federal, state and local government web resources and services.